logo
Search for airport 
image banner adimage banner adimage banner ad
image banner ad

LSYI - Limmerenfirn

Located in , Switzerland

ICAO - , IATA -

Data provided by Airmate  

General information

Coordinates: N46°48'38" E8°58'4"
Elevation is 9750 feet MSL.
 
View others Airports in Nidwalden

Operational data

Special qualification required
Current time UTC:
Current local time:
Weather at : LSZC - Buochs ( 47 km )
METAR: LSZC 140120Z AUTO VRB03KT CAVOK 10/06 Q1026
View NOTAMs / SUP AIP / TFR affecting this airport [VIEW]
Communications frequencies: [VIEW]

Runways:

Airport contact information

Address: Switzerland

Satellite view of LSYI